| time (UTC) | temp C | wind direction | speed KPH | gust KPH | rain 1hr cm | rain 24hr cm | rain mn cm | humidity % | barometer mb |
| 20260902002517 | 22 | 0.0 | 0.0 | 0.00 | 0.00 | 0.00 | 34 | 1020.3 | |
| 20260902001637 | 23 | 0.0 | 0.0 | 0.00 | 0.00 | 0.00 | 34 | 1020.3 | |
| 20260902000517 | 22 | 0.0 | 0.0 | 0.00 | 0.00 | 0.00 | 35 | 1020.1 | |
| 20260901235516 | 22 | 0.0 | 0.0 | 0.00 | 0.00 | 0.00 | 37 | 1020.1 | |
| 20260901234557 | 22 | 0.0 | 0.0 | 0.00 | 0.00 | 0.00 | 37 | 1020.2 | |
| 20260901233557 | 22 | 0.0 | 0.0 | 0.00 | 0.00 | 0.00 | 37 | 1020.1 | |
| 20260901232557 | 22 | 0.0 | 0.0 | 0.00 | 0.00 | 0.00 | 37 | 1020.1 | |
| 20260901231517 | 23 | 0.0 | 0.0 | 0.00 | 0.00 | 0.00 | 36 | 1020.0 | |
| 20260901230557 | 23 | 0.0 | 0.0 | 0.00 | 0.00 | 0.00 | 36 | 1019.9 | |
| 20260901225517 | 23 | 0.0 | 0.0 | 0.00 | 0.00 | 0.00 | 35 | 1019.8 | |
| 20260901224517 | 23 | 0.0 | 0.0 | 0.00 | 0.00 | 0.00 | 37 | 1019.6 | |
| 20260901223516 | 23 | 0.0 | 0.0 | 0.00 | 0.00 | 0.00 | 37 | 1019.4 | |
| 20260901222517 | 23 | 0.0 | 0.0 | 0.00 | 0.00 | 0.00 | 35 | 1019.3 | |
| 20260901221516 | 24 | 0.0 | 0.0 | 0.00 | 0.00 | 0.00 | 36 | 1019.3 | |
| 20260901220516 | 24 | 0.0 | 0.0 | 0.00 | 0.00 | 0.00 | 36 | 1019.2 | |
| 20260901215556 | 24 | 0.0 | 0.0 | 0.00 | 0.00 | 0.00 | 34 | 1019.2 | |
| 20260901214517 | 25 | 0.0 | 0.0 | 0.00 | 0.00 | 0.00 | 33 | 1019.1 | |
| 20260901213516 | 25 | 0.0 | 0.0 | 0.00 | 0.00 | 0.00 | 32 | 1019.1 | |
| 20260901212516 | 25 | 0.0 | 0.0 | 0.00 | 0.00 | 0.00 | 33 | 1019.1 | |
| 20260901211556 | 26 | 0.0 | 0.0 | 0.00 | 0.00 | 0.00 | 31 | 1019.0 | |
| 20260901210517 | 26 | 0.0 | 0.0 | 0.00 | 0.00 | 0.00 | 30 | 1018.9 | |
| 20260901205557 | 26 | 0.0 | 0.0 | 0.00 | 0.00 | 0.00 | 29 | 1018.8 | |
| 20260901204517 | 27 | 0.0 | 0.0 | 0.00 | 0.00 | 0.00 | 29 | 1018.7 | |
| 20260901203517 | 28 | 0.0 | 0.0 | 0.00 | 0.00 | 0.00 | 25 | 1018.5 | |
| 20260901202517 | 28 | 317 | 0.0 | 1.6 | 0.00 | 0.00 | 0.00 | 25 | 1018.5 |
| 20260901201517 | 28 | 317 | 0.0 | 3.2 | 0.00 | 0.00 | 0.00 | 24 | 1018.4 |
| 20260901200517 | 29 | 316 | 1.6 | 3.2 | 0.00 | 0.00 | 0.00 | 23 | 1018.2 |
| 20260901195517 | 29 | 317 | 0.0 | 3.2 | 0.00 | 0.00 | 0.00 | 23 | 1017.9 |
| 20260901194557 | 30 | 316 | 1.6 | 4.8 | 0.00 | 0.00 | 0.00 | 23 | 1017.8 |
| 20260901193517 | 30 | 332 | 1.6 | 4.8 | 0.00 | 0.00 | 0.00 | 23 | 1017.7 |
| 20260901192557 | 30 | 307 | 1.6 | 4.8 | 0.00 | 0.00 | 0.00 | 23 | 1017.4 |
| 20260901191516 | 30 | 287 | 1.6 | 4.8 | 0.00 | 0.00 | 0.00 | 23 | 1017.2 |
| 20260901190517 | 30 | 287 | 1.6 | 4.8 | 0.00 | 0.00 | 0.00 | 24 | 1017.2 |
| 20260901185557 | 30 | 287 | 1.6 | 3.2 | 0.00 | 0.00 | 0.00 | 23 | 1017.1 |
| 20260901184517 | 31 | 287 | 1.6 | 3.2 | 0.00 | 0.00 | 0.00 | 23 | 1017.1 |
| 20260901183517 | 31 | 287 | 1.6 | 3.2 | 0.00 | 0.00 | 0.00 | 23 | 1017.0 |
| 20260901182517 | 31 | 286 | 1.6 | 4.8 | 0.00 | 0.00 | 0.00 | 22 | 1016.9 |
| 20260901181637 | 32 | 295 | 3.2 | 8.0 | 0.00 | 0.00 | 0.00 | 22 | 1017.0 |
| 20260901180517 | 32 | 278 | 3.2 | 6.4 | 0.00 | 0.00 | 0.00 | 22 | 1017.0 |
| 20260901175557 | 32 | 271 | 3.2 | 12.9 | 0.00 | 0.00 | 0.00 | 21 | 1017.0 |
| 20260901174517 | 33 | 290 | 3.2 | 9.7 | 0.00 | 0.00 | 0.00 | 21 | 1017.1 |
| 20260901173517 | 33 | 294 | 4.8 | 11.3 | 0.00 | 0.00 | 0.00 | 21 | 1017.1 |
| 20260901172517 | 33 | 276 | 6.4 | 11.3 | 0.00 | 0.00 | 0.00 | 21 | 1017.1 |
| 20260901171517 | 33 | 283 | 3.2 | 9.7 | 0.00 | 0.00 | 0.00 | 21 | 1017.0 |
| 20260901170517 | 33 | 285 | 6.4 | 9.7 | 0.00 | 0.00 | 0.00 | 21 | 1017.0 |
| 20260901165517 | 33 | 265 | 6.4 | 16.1 | 0.00 | 0.00 | 0.00 | 22 | 1017.1 |
| 20260901164516 | 33 | 306 | 4.8 | 9.7 | 0.00 | 0.00 | 0.00 | 22 | 1017.2 |
| 20260901163517 | 33 | 299 | 4.8 | 14.5 | 0.00 | 0.00 | 0.00 | 22 | 1017.2 |
| 20260901162557 | 34 | 266 | 9.7 | 17.7 | 0.00 | 0.00 | 0.00 | 21 | 1017.3 |
| 20260901161517 | 33 | 223 | 4.8 | 17.7 | 0.00 | 0.00 | 0.00 | 21 | 1017.2 |
| 20260901160558 | 34 | 276 | 9.7 | 16.1 | 0.00 | 0.00 | 0.00 | 21 | 1017.4 |
| 20260901155557 | 34 | 278 | 3.2 | 11.3 | 0.00 | 0.00 | 0.00 | 21 | 1017.4 |
| 20260901154517 | 33 | 316 | 4.8 | 11.3 | 0.00 | 0.00 | 0.00 | 22 | 1017.4 |
| 20260901153617 | 33 | 272 | 8.0 | 16.1 | 0.00 | 0.00 | 0.00 | 21 | 1017.4 |
| 20260901152517 | 34 | 260 | 6.4 | 17.7 | 0.00 | 0.00 | 0.00 | 21 | 1017.5 |
| 20260901151557 | 33 | 273 | 9.7 | 16.1 | 0.00 | 0.00 | 0.00 | 21 | 1017.6 |
| 20260901150517 | 34 | 256 | 3.2 | 14.5 | 0.00 | 0.00 | 0.00 | 21 | 1017.8 |
| 20260901145517 | 33 | 249 | 6.4 | 16.1 | 0.00 | 0.00 | 0.00 | 22 | 1017.6 |
| 20260901144557 | 33 | 279 | 9.7 | 24.1 | 0.00 | 0.00 | 0.00 | 21 | 1017.7 |
| 20260901143657 | 33 | 258 | 6.4 | 14.5 | 0.00 | 0.00 | 0.00 | 22 | 1017.7 |
| 20260901142557 | 33 | 261 | 6.4 | 14.5 | 0.00 | 0.00 | 0.00 | 22 | 1017.9 |
| 20260901141517 | 33 | 268 | 8.0 | 19.3 | 0.00 | 0.00 | 0.00 | 24 | 1018.0 |
| 20260901140517 | 33 | 274 | 8.0 | 17.7 | 0.00 | 0.00 | 0.00 | 24 | 1018.1 |
| 20260901135557 | 33 | 268 | 8.0 | 16.1 | 0.00 | 0.00 | 0.00 | 25 | 1018.3 |
| 20260901134517 | 32 | 145 | 4.8 | 11.3 | 0.00 | 0.00 | 0.00 | 27 | 1018.2 |
| 20260901133517 | 32 | 222 | 6.4 | 16.1 | 0.00 | 0.00 | 0.00 | 26 | 1018.3 |
| 20260901132557 | 32 | 268 | 4.8 | 14.5 | 0.00 | 0.00 | 0.00 | 26 | 1018.4 |
| 20260901131517 | 32 | 183 | 6.4 | 20.9 | 0.00 | 0.00 | 0.00 | 27 | 1018.5 |
| 20260901130517 | 32 | 268 | 6.4 | 17.7 | 0.00 | 0.00 | 0.00 | 26 | 1018.7 |
| 20260901125558 | 32 | 239 | 4.8 | 19.3 | 0.00 | 0.00 | 0.00 | 28 | 1018.7 |
| 20260901124517 | 32 | 238 | 8.0 | 17.7 | 0.00 | 0.00 | 0.00 | 29 | 1018.8 |
| 20260901123515 | 31 | 155 | 6.4 | 17.7 | 0.00 | 0.00 | 0.00 | 29 | 1018.9 |
| 20260901122515 | 31 | 168 | 6.4 | 14.5 | 0.00 | 0.00 | 0.00 | 31 | 1019.0 |
| 20260901121517 | 31 | 254 | 4.8 | 11.3 | 0.00 | 0.00 | 0.00 | 35 | 1019.0 |
| 20260901120515 | 31 | 250 | 4.8 | 9.7 | 0.00 | 0.00 | 0.00 | 36 | 1019.2 |
| 20260901115517 | 30 | 263 | 6.4 | 12.9 | 0.00 | 0.00 | 0.00 | 36 | 1019.2 |
| 20260901114517 | 30 | 281 | 3.2 | 9.7 | 0.00 | 0.00 | 0.00 | 36 | 1019.3 |
| 20260901113557 | 30 | 84 | 4.8 | 11.3 | 0.00 | 0.00 | 0.00 | 38 | 1019.4 |
| 20260901112517 | 29 | 348 | 3.2 | 11.3 | 0.00 | 0.00 | 0.00 | 42 | 1019.5 |
| 20260901111517 | 29 | 123 | 4.8 | 16.1 | 0.00 | 0.00 | 0.00 | 43 | 1019.6 |
| 20260901110517 | 29 | 82 | 4.8 | 12.9 | 0.00 | 0.00 | 0.00 | 43 | 1019.7 |
| 20260901105517 | 28 | 178 | 3.2 | 11.3 | 0.00 | 0.00 | 0.00 | 44 | 1019.7 |
| 20260901104517 | 28 | 70 | 3.2 | 11.3 | 0.00 | 0.00 | 0.00 | 46 | 1019.8 |
| 20260901103517 | 27 | 57 | 1.6 | 12.9 | 0.00 | 0.00 | 0.00 | 49 | 1019.8 |
| 20260901102557 | 27 | 97 | 3.2 | 11.3 | 0.00 | 0.00 | 0.00 | 51 | 1020.0 |
| 20260901101517 | 26 | 116 | 6.4 | 12.9 | 0.00 | 0.00 | 0.00 | 51 | 1020.0 |
| 20260901100557 | 26 | 120 | 4.8 | 12.9 | 0.00 | 0.00 | 0.00 | 53 | 1020.1 |
| 20260901095515 | 26 | 122 | 4.8 | 14.5 | 0.00 | 0.00 | 0.00 | 54 | 1020.1 |
| 20260901094515 | 25 | 51 | 4.8 | 12.9 | 0.00 | 0.00 | 0.00 | 58 | 1020.2 |
| 20260901093515 | 25 | 49 | 6.4 | 14.5 | 0.00 | 0.00 | 0.00 | 58 | 1020.2 |
| 20260901092515 | 25 | 17 | 4.8 | 11.3 | 0.00 | 0.00 | 0.00 | 60 | 1020.2 |
| 20260901091515 | 24 | 75 | 3.2 | 11.3 | 0.00 | 0.00 | 0.00 | 62 | 1020.0 |
| 20260901090515 | 24 | 25 | 4.8 | 11.3 | 0.00 | 0.00 | 0.00 | 63 | 1020.2 |
| 20260901085615 | 23 | 54 | 4.8 | 12.9 | 0.00 | 0.00 | 0.00 | 64 | 1020.0 |
| 20260901084515 | 23 | 53 | 4.8 | 9.7 | 0.00 | 0.00 | 0.00 | 65 | 1019.9 |
| 20260901083516 | 23 | 57 | 3.2 | 9.7 | 0.00 | 0.00 | 0.00 | 66 | 1019.9 |
| 20260901082515 | 22 | 116 | 3.2 | 8.0 | 0.00 | 0.00 | 0.00 | 66 | 1019.9 |
| 20260901081515 | 22 | 45 | 4.8 | 9.7 | 0.00 | 0.00 | 0.00 | 67 | 1019.9 |
| 20260901080516 | 22 | 46 | 4.8 | 9.7 | 0.00 | 0.00 | 0.00 | 68 | 1020.0 |
| 20260901075555 | 22 | 57 | 4.8 | 8.0 | 0.00 | 0.00 | 0.00 | 68 | 1020.0 |
| 20260901074515 | 22 | 59 | 6.4 | 9.7 | 0.00 | 0.00 | 0.00 | 68 | 1020.1 |
| 20260901073515 | 21 | 50 | 3.2 | 8.0 | 0.00 | 0.00 | 0.00 | 66 | 1020.1 |
| 20260901072515 | 21 | 49 | 3.2 | 9.7 | 0.00 | 0.00 | 0.00 | 65 | 1020.2 |
| 20260901071515 | 21 | 62 | 3.2 | 9.7 | 0.00 | 0.00 | 0.00 | 64 | 1020.2 |
| 20260901070555 | 21 | 59 | 4.8 | 8.0 | 0.00 | 0.00 | 0.00 | 64 | 1020.2 |
| 20260901065515 | 20 | 64 | 3.2 | 8.0 | 0.00 | 0.00 | 0.00 | 60 | 1020.1 |
| 20260901064555 | 20 | 44 | 3.2 | 8.0 | 0.00 | 0.00 | 0.00 | 60 | 1020.1 |
| 20260901063515 | 20 | 78 | 3.2 | 6.4 | 0.00 | 0.00 | 0.00 | 60 | 1020.0 |
| 20260901062515 | 20 | 37 | 3.2 | 8.0 | 0.00 | 0.00 | 0.00 | 62 | 1019.9 |
| 20260901061555 | 20 | 64 | 3.2 | 6.4 | 0.00 | 0.00 | 0.00 | 64 | 1019.9 |
| 20260901060515 | 20 | 46 | 1.6 | 4.8 | 0.00 | 0.00 | 0.00 | 64 | 1020.0 |
| 20260901055555 | 20 | 43 | 3.2 | 8.0 | 0.00 | 0.00 | 0.00 | 65 | 1019.9 |
| 20260901054515 | 20 | 65 | 1.6 | 4.8 | 0.00 | 0.00 | 0.00 | 66 | 1019.8 |
| 20260901053555 | 20 | 65 | 1.6 | 6.4 | 0.00 | 0.00 | 0.00 | 68 | 1019.8 |
| 20260901052515 | 20 | 57 | 0.0 | 3.2 | 0.00 | 0.00 | 0.00 | 67 | 1019.7 |
| 20260901051515 | 20 | 0.0 | 0.0 | 0.00 | 0.00 | 0.00 | 65 | 1019.6 | |
| 20260901050515 | 20 | 57 | 0.0 | 3.2 | 0.00 | 0.00 | 0.00 | 64 | 1019.6 |
| 20260901045515 | 20 | 57 | 1.6 | 3.2 | 0.00 | 0.00 | 0.00 | 62 | 1019.5 |
| 20260901044515 | 20 | 57 | 0.0 | 4.8 | 0.00 | 0.00 | 0.00 | 64 | 1019.4 |
| 20260901043515 | 20 | 57 | 0.0 | 3.2 | 0.00 | 0.00 | 0.00 | 64 | 1019.3 |
| 20260901042555 | 21 | 0.0 | 0.0 | 0.00 | 0.00 | 0.00 | 64 | 1019.3 | |
| 20260901041515 | 21 | 0.0 | 0.0 | 0.00 | 0.00 | 0.00 | 62 | 1019.2 | |
| 20260901040515 | 21 | 0.0 | 0.0 | 0.00 | 0.00 | 0.00 | 62 | 1019.2 | |
| 20260901035555 | 21 | 0.0 | 0.0 | 0.00 | 0.00 | 0.00 | 61 | 1019.1 | |
| 20260901034555 | 21 | 0.0 | 0.0 | 0.00 | 0.00 | 0.00 | 60 | 1019.0 | |
| 20260901033515 | 21 | 0.0 | 0.0 | 0.00 | 0.00 | 0.00 | 57 | 1019.0 | |
| 20260901032515 | 21 | 0.0 | 0.0 | 0.00 | 0.00 | 0.00 | 54 | 1019.0 | |
| 20260901031515 | 21 | 0.0 | 0.0 | 0.00 | 0.00 | 0.00 | 51 | 1018.9 | |
| 20260901030515 | 21 | 0.0 | 0.0 | 0.00 | 0.00 | 0.00 | 49 | 1018.8 | |
| 20260901025515 | 21 | 0.0 | 0.0 | 0.00 | 0.00 | 0.00 | 48 | 1018.9 | |
| 20260901024555 | 21 | 57 | 1.6 | 3.2 | 0.00 | 0.00 | 0.00 | 47 | 1018.8 |
| 20260901023515 | 21 | 57 | 1.6 | 4.8 | 0.00 | 0.00 | 0.00 | 48 | 1018.8 |
| 20260901022515 | 21 | 0.0 | 0.0 | 0.00 | 0.00 | 0.00 | 49 | 1018.7 | |
| 20260901021515 | 21 | 0.0 | 0.0 | 0.00 | 0.00 | 0.00 | 48 | 1018.8 | |
| 20260901020515 | 21 | 0.0 | 0.0 | 0.00 | 0.00 | 0.00 | 46 | 1018.8 | |
| 20260901015515 | 22 | 0.0 | 0.0 | 0.00 | 0.00 | 0.00 | 45 | 1018.9 | |
| 20260901014516 | 22 | 0.0 | 0.0 | 0.00 | 0.00 | 0.00 | 43 | 1018.9 | |
| 20260901013515 | 22 | 0.0 | 0.0 | 0.00 | 0.00 | 0.00 | 42 | 1018.8 | |
| 20260901012516 | 22 | 0.0 | 0.0 | 0.00 | 0.00 | 0.00 | 41 | 1018.8 | |
| 20260901011555 | 22 | 57 | 1.6 | 11.3 | 0.00 | 0.00 | 0.00 | 41 | 1018.8 |
| 20260901010515 | 22 | 48 | 3.2 | 8.0 | 0.00 | 0.00 | 0.00 | 40 | 1018.8 |
| 20260901005515 | 22 | 69 | 1.6 | 6.4 | 0.00 | 0.00 | 0.00 | 40 | 1018.7 |
| 20260901004555 | 22 | 29 | 1.6 | 3.2 | 0.00 | 0.00 | 0.00 | 40 | 1018.7 |
| 20260901003515 | 22 | 29 | 1.6 | 9.7 | 0.00 | 0.00 | 0.00 | 41 | 1018.6 |